Tracking 29892 objects as of 21-Nov-2024
HD Live streaming from Space Station
objects crossing your sky now

CZ-6A DEB

Track CZ-6A DEB now!
10-day predictions


NORAD ID: 56628
Int'l Code: 2022-151AFC
Perigee: 834.1 km
Apogee: 937.8 km
Inclination: 98.8 °
Period: 102.5 minutes
Semi major axis: 7256 km
RCS: Unknown
Launch date: November 11, 2022
Source: People's Republic of China (PRC)
Launch site: Taiyaun Space Center, China (TSC)

Note: This is SATELLITE DEBRIS
Your satellite tracking list
Your tracking list is empty




NASA's NSSDC Master Catalog

Two Line Element Set (TLE):
1 56628U 22151AFC 24324.23536074  .00000553  00000-0  36622-3 0  9998
2 56628  98.8305 316.8952 0071470 178.5783 181.5600 14.04332841 31728
Source of the keplerian elements: AFSPC